Location: Unspecified
(22.6800°N, 112.2000°E)
Time: 13:14:19
(UTC+08:00)

Transit 2A - Pass Details

Date: 06 August 2021
Orbit: 594 x 964 km, 66.7° (Epoch: 21 September)

Event Time Altitude Azimuth Distance (km) Brightness Sun altitude
Rises 05:17:33 0° 222° (SW) 2,821 - -10.9°
Reaches altitude 10° 05:19:57 10° 232° (SW) 1,918 - -10.4°
Exits shadow 05:20:35 14° 237° (WSW) 1,699 7.2 -10.3°
Maximum altitude 05:23:47 32° 296° (WNW) 1,035 6.4 -9.6°
Drops below altitude 10° 05:27:44 10° 0° (N) 1,980 8.5 -8.8°
Sets 05:30:15 0° 11° (N) 2,928 9.5 -8.2°
